Time,TemperatureF,DewpointF,PressureIn,WindDirection,WindDirectionDegrees,WindSpeedMPH,WindSpeedGustMPH,Humidity,HourlyPrecipIn,Conditions,Clouds,dailyrainin,SoftwareType,DateUTC
2013-03-24 00:00:00,34.0,19.9,29.77,West,278,5.4,14.0,56,0.00,OVC,,0.00,WeatherDisplay:10.37,2013-03-24 04:00:00,
2013-03-24 00:05:00,34.1,20.0,29.77,West,275,5.6,6.9,56,0.00,OVC,,0.00,WeatherDisplay:10.37,2013-03-24 04:05:00,
2013-03-24 00:10:00,34.0,19.9,29.77,NW,305,6.5,10.4,56,0.00,OVC,,0.00,WeatherDisplay:10.37,2013-03-24 04:10:00,
2013-03-24 00:15:00,34.0,19.9,29.77,WNW,286,7.3,12.7,56,0.00,OVC,,0.00,WeatherDisplay:10.37,2013-03-24 04:15:00,
2013-03-24 00:20:00,33.8,20.2,29.77,WNW,292,9.1,10.4,57,0.00,OVC,,0.00,WeatherDisplay:10.37,2013-03-24 04:20:00,
2013-03-24 00:25:00,33.8,19.7,29.77,NW,310,6.1,8.1,56,0.00,OVC,,0.00,WeatherDisplay:10.37,2013-03-24 04:25:00,
2013-03-24 00:30:00,33.8,20.2,29.77,WNW,289,8.5,12.7,57,0.00,OVC,,0.00,WeatherDisplay:10.37,2013-03-24 04:30:00,
2013-03-24 00:35:00,33.8,20.2,29.77,NW,316,7.4,11.5,57,0.00,OVC,,0.00,WeatherDisplay:10.37,2013-03-24 04:35:00,
2013-03-24 00:40:00,33.8,20.2,29.77,WNW,288,5.3,5.8,57,0.00,OVC,,0.00,WeatherDisplay:10.37,2013-03-24 04:40:00,
2013-03-24 00:45:00,33.7,20.1,29.77,West,281,8.0,11.5,57,0.00,OVC,,0.00,WeatherDisplay:10.37,2013-03-24 04:45:00,
2013-03-24 00:50:00,33.7,20.1,29.77,WNW,292,7.6,10.4,57,0.00,OVC,,0.00,WeatherDisplay:10.37,2013-03-24 04:50:00,
2013-03-24 00:55:00,33.5,19.9,29.77,WNW,303,8.0,12.7,57,0.00,OVC,,0.00,WeatherDisplay:10.37,2013-03-24 04:55:00,
2013-03-24 01:00:00,33.5,19.9,29.77,NW,320,10.9,13.8,57,0.00,OVC,,0.00,WeatherDisplay:10.37,2013-03-24 05:00:00,
2013-03-24 01:05:00,33.5,19.9,29.76,NW,305,13.0,19.6,57,0.00,OVC,,0.00,WeatherDisplay:10.37,2013-03-24 05:05:00,
2013-03-24 01:10:00,33.5,19.9,29.76,North,0,7.3,17.3,57,0.00,OVC,,0.00,WeatherDisplay:10.37,2013-03-24 05:10:00,
2013-03-24 01:15:00,33.4,20.2,29.76,WNW,293,10.5,19.6,58,0.00,OVC,,0.00,WeatherDisplay:10.37,2013-03-24 05:15:00,
2013-03-24 01:20:00,33.4,20.2,29.77,NW,312,7.0,11.5,58,0.00,OVC,,0.00,WeatherDisplay:10.37,2013-03-24 05:20:00,
2013-03-24 01:25:00,33.2,20.0,29.77,NW,321,7.3,12.7,58,0.00,OVC,,0.00,WeatherDisplay:10.37,2013-03-24 05:25:00,
2013-03-24 01:30:00,33.2,20.0,29.77,NW,306,8.3,16.1,58,0.00,OVC,,0.00,WeatherDisplay:10.37,2013-03-24 05:30:00,
2013-03-24 01:35:00,33.2,20.0,29.77,WNW,302,6.5,11.5,58,0.00,OVC,,0.00,WeatherDisplay:10.37,2013-03-24 05:35:00,
2013-03-24 01:40:00,33.2,20.4,29.77,West,276,5.2,6.9,59,0.00,OVC,,0.00,WeatherDisplay:10.37,2013-03-24 05:40:00,
2013-03-24 01:45:00,33.2,20.4,29.78,NW,306,5.5,8.1,59,0.00,OVC,,0.00,WeatherDisplay:10.37,2013-03-24 05:45:00,
2013-03-24 01:50:00,33.2,20.4,29.78,West,269,7.5,11.5,59,0.00,OVC,,0.00,WeatherDisplay:10.37,2013-03-24 05:50:00,
2013-03-24 01:55:00,33.4,20.6,29.78,West,269,5.6,12.7,59,0.00,OVC,,0.00,WeatherDisplay:10.37,2013-03-24 05:55:00,
2013-03-24 02:00:00,33.4,21.0,29.77,WNW,290,4.7,6.9,60,0.00,OVC,,0.00,WeatherDisplay:10.37,2013-03-24 06:00:00,
2013-03-24 02:05:00,33.2,20.8,29.78,West,275,4.3,8.1,60,0.00,OVC,,0.00,WeatherDisplay:10.37,2013-03-24 06:05:00,
2013-03-24 02:10:00,33.2,20.4,29.78,WNW,303,5.7,10.4,59,0.00,OVC,,0.00,WeatherDisplay:10.37,2013-03-24 06:10:00,
2013-03-24 02:15:00,33.2,20.8,29.78,NW,312,2.6,3.5,60,0.00,OVC,,0.00,WeatherDisplay:10.37,2013-03-24 06:15:00,
2013-03-24 02:20:00,33.2,20.8,29.77,NW,305,4.0,8.1,60,0.00,OVC,,0.00,WeatherDisplay:10.37,2013-03-24 06:20:00,
2013-03-24 02:25:00,33.2,21.2,29.77,WNW,288,6.5,11.5,61,0.00,OVC,,0.00,WeatherDisplay:10.37,2013-03-24 06:25:00,
2013-03-24 02:30:00,33.2,21.2,29.77,WNW,290,7.3,11.5,61,0.00,OVC,,0.00,WeatherDisplay:10.37,2013-03-24 06:30:00,
2013-03-24 02:35:00,33.2,20.8,29.77,WNW,299,6.7,10.4,60,0.00,OVC,,0.00,WeatherDisplay:10.37,2013-03-24 06:35:00,
2013-03-24 02:40:00,33.4,21.0,29.77,NNW,337,5.7,12.7,60,0.00,OVC,,0.00,WeatherDisplay:10.37,2013-03-24 06:40:00,
2013-03-24 02:45:00,33.4,21.0,29.77,NNW,344,6.8,10.4,60,0.00,OVC,,0.00,WeatherDisplay:10.37,2013-03-24 06:45:00,
2013-03-24 02:50:00,33.4,21.0,29.77,NW,320,3.0,3.5,60,0.00,OVC,,0.00,WeatherDisplay:10.37,2013-03-24 06:50:00,
2013-03-24 02:55:00,33.2,20.8,29.77,WNW,302,4.5,6.9,60,0.00,OVC,,0.00,WeatherDisplay:10.37,2013-03-24 06:55:00,
2013-03-24 03:00:00,33.4,21.0,29.77,NW,316,9.7,11.5,60,0.00,OVC,,0.00,WeatherDisplay:10.37,2013-03-24 07:00:00,
2013-03-24 03:05:00,33.5,21.1,29.77,NW,307,1.8,4.6,60,0.00,OVC,,0.00,WeatherDisplay:10.37,2013-03-24 07:05:00,
2013-03-24 03:10:00,33.4,21.0,29.77,NW,316,9.3,11.5,60,0.00,OVC,,0.00,WeatherDisplay:10.37,2013-03-24 07:10:00,
2013-03-24 03:15:00,33.2,20.8,29.77,NW,313,4.3,10.4,60,0.00,OVC,,0.00,WeatherDisplay:10.37,2013-03-24 07:15:00,
2013-03-24 03:20:00,33.1,21.1,29.77,WNW,285,4.3,10.4,61,0.00,OVC,,0.00,WeatherDisplay:10.37,2013-03-24 07:20:00,
2013-03-24 03:25:00,33.1,21.1,29.77,WNW,302,5.3,6.9,61,0.00,OVC,,0.00,WeatherDisplay:10.37,2013-03-24 07:25:00,
2013-03-24 03:30:00,32.9,21.3,29.77,NW,305,8.9,10.4,62,0.00,OVC,,0.00,WeatherDisplay:10.37,2013-03-24 07:30:00,
2013-03-24 03:35:00,32.9,20.9,29.76,WNW,290,10.5,16.1,61,0.00,OVC,,0.00,WeatherDisplay:10.37,2013-03-24 07:35:00,
2013-03-24 03:40:00,32.8,20.8,29.76,NW,307,5.6,10.4,61,0.00,OVC,,0.00,WeatherDisplay:10.37,2013-03-24 07:40:00,
2013-03-24 03:45:00,32.8,21.2,29.76,NNW,330,4.8,6.0,62,0.00,OVC,,0.00,WeatherDisplay:10.37,2013-03-24 07:45:00,
2013-03-24 03:50:00,32.8,21.2,29.76,West,269,4.6,5.8,62,0.00,OVC,,0.00,WeatherDisplay:10.37,2013-03-24 07:50:00,
2013-03-24 03:55:00,32.6,21.0,29.76,NW,314,8.1,11.5,62,0.00,OVC,,0.00,WeatherDisplay:10.37,2013-03-24 07:55:00,
2013-03-24 04:00:00,32.6,21.0,29.76,WSW,245,8.2,10.4,62,0.00,BKN,,0.00,WeatherDisplay:10.37,2013-03-24 08:00:00,
2013-03-24 04:05:00,32.6,21.0,29.76,WNW,285,5.0,8.1,62,0.00,BKN,,0.00,WeatherDisplay:10.37,2013-03-24 08:05:00,
2013-03-24 04:10:00,32.5,20.9,29.76,NW,307,4.2,8.1,62,0.00,BKN,,0.00,WeatherDisplay:10.37,2013-03-24 08:10:00,
2013-03-24 04:15:00,32.5,20.9,29.76,NW,314,9.4,12.7,62,0.00,BKN,,0.00,WeatherDisplay:10.37,2013-03-24 08:15:00,
2013-03-24 04:20:00,32.4,20.8,29.76,WNW,283,4.0,8.1,62,0.00,BKN,,0.00,WeatherDisplay:10.37,2013-03-24 08:20:00,
2013-03-24 04:25:00,32.4,20.8,29.76,WNW,289,7.1,11.5,62,0.00,BKN,,0.00,WeatherDisplay:10.37,2013-03-24 08:25:00,
2013-03-24 04:30:00,32.2,20.6,29.76,NNW,338,1.0,6.9,62,0.00,BKN,,0.00,WeatherDisplay:10.37,2013-03-24 08:30:00,
2013-03-24 04:35:00,32.1,20.5,29.76,NW,324,3.0,8.1,62,0.00,BKN,,0.00,WeatherDisplay:10.37,2013-03-24 08:35:00,
2013-03-24 04:40:00,31.9,20.3,29.76,North,355,1.9,4.6,62,0.00,BKN,,0.00,WeatherDisplay:10.37,2013-03-24 08:40:00,
2013-03-24 04:45:00,31.8,20.6,29.76,NW,316,3.1,6.0,63,0.00,BKN,,0.00,WeatherDisplay:10.37,2013-03-24 08:45:00,
2013-03-24 04:50:00,31.6,20.4,29.76,NW,309,2.9,5.0,63,0.00,BKN,,0.00,WeatherDisplay:10.37,2013-03-24 08:50:00,
2013-03-24 04:55:00,31.5,20.3,29.76,WNW,285,4.1,5.8,63,0.00,BKN,,0.00,WeatherDisplay:10.37,2013-03-24 08:55:00,
2013-03-24 05:00:00,31.2,20.4,29.76,NW,312,2.4,3.5,64,0.00,BKN,,0.00,WeatherDisplay:10.37,2013-03-24 09:00:00,
2013-03-24 05:05:00,31.2,20.4,29.77,NW,313,3.9,6.0,64,0.00,BKN,,0.00,WeatherDisplay:10.37,2013-03-24 09:05:00,
2013-03-24 05:10:00,31.0,20.6,29.77,WNW,297,6.2,10.4,65,0.00,BKN,,0.00,WeatherDisplay:10.37,2013-03-24 09:10:00,
2013-03-24 05:15:00,30.9,20.5,29.77,WNW,282,4.4,8.0,65,0.00,BKN,,0.00,WeatherDisplay:10.37,2013-03-24 09:15:00,
2013-03-24 05:20:00,30.9,20.5,29.76,NW,313,6.1,10.4,65,0.00,BKN,,0.00,WeatherDisplay:10.37,2013-03-24 09:20:00,
2013-03-24 05:25:00,30.7,20.3,29.76,WNW,290,6.2,11.5,65,0.00,BKN,,0.00,WeatherDisplay:10.37,2013-03-24 09:25:00,
2013-03-24 05:30:00,30.9,20.5,29.76,WNW,295,10.9,11.5,65,0.00,BKN,,0.00,WeatherDisplay:10.37,2013-03-24 09:30:00,
2013-03-24 05:35:00,31.0,20.6,29.76,NW,307,8.2,12.7,65,0.00,BKN,,0.00,WeatherDisplay:10.37,2013-03-24 09:35:00,
2013-03-24 05:40:00,30.9,20.5,29.76,NW,321,8.6,16.1,65,0.00,BKN,,0.00,WeatherDisplay:10.37,2013-03-24 09:40:00,
2013-03-24 05:45:00,31.0,20.6,29.76,WNW,296,8.0,16.1,65,0.00,BKN,,0.00,WeatherDisplay:10.37,2013-03-24 09:45:00,
2013-03-24 05:50:00,31.0,20.6,29.76,WNW,295,10.6,16.1,65,0.00,BKN,,0.00,WeatherDisplay:10.37,2013-03-24 09:50:00,
2013-03-24 05:55:00,31.0,20.6,29.76,WNW,300,10.3,13.8,65,0.00,BKN,,0.00,WeatherDisplay:10.37,2013-03-24 09:55:00,
2013-03-24 06:00:00,31.0,20.6,29.76,West,281,5.2,8.1,65,0.00,BKN,,0.00,WeatherDisplay:10.37,2013-03-24 10:00:00,
2013-03-24 06:05:00,31.0,20.6,29.77,WNW,286,5.9,13.8,65,0.00,BKN,,0.00,WeatherDisplay:10.37,2013-03-24 10:05:00,
2013-03-24 06:10:00,30.9,20.1,29.77,West,259,4.8,11.5,64,0.00,BKN,,0.00,WeatherDisplay:10.37,2013-03-24 10:10:00,
2013-03-24 06:15:00,31.0,20.2,29.77,WNW,290,3.6,6.9,64,0.00,BKN,,0.00,WeatherDisplay:10.37,2013-03-24 10:15:00,
2013-03-24 06:20:00,31.0,20.2,29.77,NW,317,3.6,5.0,64,0.00,BKN,,0.00,WeatherDisplay:10.37,2013-03-24 10:20:00,
2013-03-24 06:25:00,30.9,20.1,29.78,NW,316,6.6,11.5,64,0.00,BKN,,0.00,WeatherDisplay:10.37,2013-03-24 10:25:00,
2013-03-24 06:30:00,30.9,20.1,29.78,WNW,302,3.7,3.7,64,0.00,BKN,,0.00,WeatherDisplay:10.37,2013-03-24 10:30:00,
2013-03-24 06:35:00,30.9,20.1,29.78,WNW,302,8.2,12.7,64,0.00,BKN,,0.00,WeatherDisplay:10.37,2013-03-24 10:35:00,
2013-03-24 06:40:00,30.9,20.1,29.79,WNW,292,7.2,10.4,64,0.00,BKN,,0.00,WeatherDisplay:10.37,2013-03-24 10:40:00,
2013-03-24 06:45:00,30.7,20.3,29.79,NW,306,5.5,11.5,65,0.00,BKN,,0.00,WeatherDisplay:10.37,2013-03-24 10:45:00,
2013-03-24 06:50:00,30.9,20.5,29.79,WNW,288,8.0,10.0,65,0.00,BKN,,0.00,WeatherDisplay:10.37,2013-03-24 10:50:00,
2013-03-24 06:55:00,30.9,20.5,29.79,West,269,7.2,11.5,65,0.00,BKN,,0.00,WeatherDisplay:10.37,2013-03-24 10:55:00,
2013-03-24 07:00:00,30.9,20.5,29.79,WNW,292,6.6,11.5,65,0.00,CLR,,0.00,WeatherDisplay:10.37,2013-03-24 11:00:00,
2013-03-24 07:05:00,31.0,20.2,29.80,West,275,8.6,13.8,64,0.00,CLR,,0.00,WeatherDisplay:10.37,2013-03-24 11:05:00,
2013-03-24 07:10:00,31.0,20.2,29.81,NW,305,7.4,11.5,64,0.00,CLR,,0.00,WeatherDisplay:10.37,2013-03-24 11:10:00,
2013-03-24 07:15:00,31.2,20.4,29.81,NW,306,7.1,13.0,64,0.00,CLR,,0.00,WeatherDisplay:10.37,2013-03-24 11:15:00,
2013-03-24 07:20:00,31.5,20.3,29.81,NW,319,5.4,11.5,63,0.00,CLR,,0.00,WeatherDisplay:10.37,2013-03-24 11:20:00,
2013-03-24 07:25:00,31.6,20.4,29.81,WNW,302,9.8,16.1,63,0.00,CLR,,0.00,WeatherDisplay:10.37,2013-03-24 11:25:00,
2013-03-24 07:30:00,31.9,20.3,29.82,West,276,11.8,17.3,62,0.00,CLR,,0.00,WeatherDisplay:10.37,2013-03-24 11:30:00,
2013-03-24 07:35:00,32.1,20.5,29.81,NNW,331,10.8,19.6,62,0.00,CLR,,0.00,WeatherDisplay:10.37,2013-03-24 11:35:00,
2013-03-24 07:40:00,32.2,20.6,29.81,WNW,283,7.0,15.0,62,0.00,CLR,,0.00,WeatherDisplay:10.37,2013-03-24 11:40:00,
2013-03-24 07:45:00,32.5,20.9,29.81,NW,312,9.2,12.7,62,0.00,CLR,,0.00,WeatherDisplay:10.37,2013-03-24 11:45:00,
2013-03-24 07:50:00,32.9,20.5,29.82,NW,326,7.5,11.5,60,0.00,CLR,,0.00,WeatherDisplay:10.37,2013-03-24 11:50:00,
2013-03-24 07:55:00,33.4,21.0,29.81,WNW,299,11.2,13.8,60,0.00,CLR,,0.00,WeatherDisplay:10.37,2013-03-24 11:55:00,
2013-03-24 08:00:00,33.8,21.0,29.81,NW,313,10.1,19.6,59,0.00,SCT,,0.00,WeatherDisplay:10.37,2013-03-24 12:00:00,
2013-03-24 08:05:00,34.3,21.0,29.80,NW,317,14.1,20.7,58,0.00,SCT,,0.00,WeatherDisplay:10.37,2013-03-24 12:05:00,
2013-03-24 08:10:00,34.6,21.3,29.80,NW,323,10.4,26.5,58,0.00,SCT,,0.00,WeatherDisplay:10.37,2013-03-24 12:10:00,
2013-03-24 08:15:00,34.9,21.2,29.80,NW,306,11.8,19.6,57,0.00,SCT,,0.00,WeatherDisplay:10.37,2013-03-24 12:15:00,
2013-03-24 08:20:00,35.2,21.5,29.81,WNW,290,14.4,20.7,57,0.00,SCT,,0.00,WeatherDisplay:10.37,2013-03-24 12:20:00,
2013-03-24 08:25:00,35.3,21.6,29.81,WNW,293,11.8,15.0,57,0.00,SCT,,0.00,WeatherDisplay:10.37,2013-03-24 12:25:00,
2013-03-24 08:30:00,35.7,21.5,29.81,WNW,303,9.3,21.0,56,0.00,SCT,,0.00,WeatherDisplay:10.37,2013-03-24 12:30:00,
2013-03-24 08:35:00,36.0,21.8,29.81,WNW,302,16.4,24.2,56,0.00,SCT,,0.00,WeatherDisplay:10.37,2013-03-24 12:35:00,
2013-03-24 08:40:00,36.2,22.0,29.81,West,272,15.5,24.2,56,0.00,SCT,,0.00,WeatherDisplay:10.37,2013-03-24 12:40:00,
2013-03-24 08:45:00,36.2,21.6,29.80,NNW,344,9.0,16.1,55,0.00,SCT,,0.00,WeatherDisplay:10.37,2013-03-24 12:45:00,
2013-03-24 08:50:00,36.6,21.9,29.80,NNW,327,7.5,12.7,55,0.00,SCT,,0.00,WeatherDisplay:10.37,2013-03-24 12:50:00,
2013-03-24 08:55:00,36.9,22.2,29.80,WNW,288,12.1,20.0,55,0.00,SCT,,0.00,WeatherDisplay:10.37,2013-03-24 12:55:00,
2013-03-24 09:00:00,37.0,21.4,29.80,NW,309,13.7,19.6,53,0.00,BKN,,0.00,WeatherDisplay:10.37,2013-03-24 13:00:00,
2013-03-24 09:05:00,37.0,21.9,29.81,WNW,300,8.9,19.6,54,0.00,BKN,,0.00,WeatherDisplay:10.37,2013-03-24 13:05:00,
2013-03-24 09:10:00,37.5,22.3,29.82,NNW,338,10.1,13.8,54,0.00,BKN,,0.00,WeatherDisplay:10.37,2013-03-24 13:10:00,
2013-03-24 09:15:00,38.0,21.9,29.82,NW,316,9.9,11.5,52,0.00,BKN,,0.00,WeatherDisplay:10.37,2013-03-24 13:15:00,
2013-03-24 09:20:00,38.5,21.9,29.82,NNW,337,11.1,18.0,51,0.00,BKN,,0.00,WeatherDisplay:10.37,2013-03-24 13:20:00,
2013-03-24 09:25:00,38.5,21.9,29.82,NW,320,14.8,19.0,51,0.00,BKN,,0.00,WeatherDisplay:10.37,2013-03-24 13:25:00,
2013-03-24 09:30:00,38.0,21.5,29.81,West,266,9.5,19.6,51,0.00,BKN,,0.00,WeatherDisplay:10.37,2013-03-24 13:30:00,
2013-03-24 09:35:00,38.3,21.7,29.81,NW,306,11.6,18.4,51,0.00,BKN,,0.00,WeatherDisplay:10.37,2013-03-24 13:35:00,
2013-03-24 09:40:00,38.6,22.0,29.81,WNW,288,7.4,13.8,51,0.00,BKN,,0.00,WeatherDisplay:10.37,2013-03-24 13:40:00,
2013-03-24 09:45:00,39.0,22.4,29.81,NW,314,7.7,10.4,51,0.00,BKN,,0.00,WeatherDisplay:10.37,2013-03-24 13:45:00,
2013-03-24 09:50:00,39.0,21.9,29.80,NNW,330,13.8,19.6,50,0.00,BKN,,0.00,WeatherDisplay:10.37,2013-03-24 13:50:00,
2013-03-24 09:55:00,38.6,21.1,29.80,NNW,334,15.0,25.3,49,0.00,BKN,,0.00,WeatherDisplay:10.37,2013-03-24 13:55:00,
2013-03-24 10:00:00,37.7,21.2,29.80,NW,316,8.3,19.6,51,0.00,CLR,,0.00,WeatherDisplay:10.37,2013-03-24 14:00:00,
2013-03-24 10:05:00,37.9,21.4,29.80,NW,305,10.9,16.1,51,0.00,CLR,,0.00,WeatherDisplay:10.37,2013-03-24 14:05:00,
2013-03-24 10:10:00,38.8,21.7,29.79,North,5,8.9,19.6,50,0.00,CLR,,0.00,WeatherDisplay:10.37,2013-03-24 14:10:00,
2013-03-24 10:15:00,39.0,21.4,29.79,WNW,299,17.7,19.6,49,0.00,CLR,,0.00,WeatherDisplay:10.37,2013-03-24 14:15:00,
2013-03-24 10:20:00,38.8,21.7,29.80,NW,312,11.7,21.9,50,0.00,CLR,,0.00,WeatherDisplay:10.37,2013-03-24 14:20:00,
2013-03-24 10:25:00,39.0,21.9,29.80,NNW,327,5.8,14.0,50,0.00,CLR,,0.00,WeatherDisplay:10.37,2013-03-24 14:25:00,
2013-03-24 10:30:00,39.6,22.0,29.80,NE,48,7.4,12.7,49,0.00,CLR,,0.00,WeatherDisplay:10.37,2013-03-24 14:30:00,
2013-03-24 10:35:00,39.6,22.0,29.79,North,358,13.5,19.6,49,0.00,CLR,,0.00,WeatherDisplay:10.37,2013-03-24 14:35:00,
2013-03-24 10:40:00,39.8,22.7,29.79,NW,313,7.0,11.5,50,0.00,CLR,,0.00,WeatherDisplay:10.37,2013-03-24 14:40:00,
2013-03-24 10:45:00,40.2,22.5,29.79,WNW,302,19.1,26.5,49,0.00,CLR,,0.00,WeatherDisplay:10.37,2013-03-24 14:45:00,
2013-03-24 10:50:00,40.2,22.5,29.79,NW,309,12.0,21.9,49,0.00,CLR,,0.00,WeatherDisplay:10.37,2013-03-24 14:50:00,
2013-03-24 10:55:00,39.9,21.8,29.80,NNW,347,5.9,11.5,48,0.00,CLR,,0.00,WeatherDisplay:10.37,2013-03-24 14:55:00,
2013-03-24 11:00:00,39.9,21.3,29.80,NW,313,11.7,17.3,47,0.00,FEW,,0.00,WeatherDisplay:10.37,2013-03-24 15:00:00,
2013-03-24 11:05:00,40.0,21.9,29.80,NW,317,11.0,12.7,48,0.00,FEW,,0.00,WeatherDisplay:10.37,2013-03-24 15:05:00,
2013-03-24 11:10:00,40.3,21.6,29.80,NW,305,5.6,12.0,47,0.00,FEW,,0.00,WeatherDisplay:10.37,2013-03-24 15:10:00,
2013-03-24 11:15:00,40.5,21.8,29.80,NNE,32,4.9,11.5,47,0.00,FEW,,0.00,WeatherDisplay:10.37,2013-03-24 15:15:00,
2013-03-24 11:20:00,40.9,21.2,29.80,North,354,7.7,11.5,45,0.00,FEW,,0.00,WeatherDisplay:10.37,2013-03-24 15:20:00,
2013-03-24 11:25:00,40.9,21.7,29.80,WNW,295,9.8,20.7,46,0.00,FEW,,0.00,WeatherDisplay:10.37,2013-03-24 15:25:00,
2013-03-24 11:30:00,40.9,21.7,29.81,NW,306,11.2,17.3,46,0.00,FEW,,0.00,WeatherDisplay:10.37,2013-03-24 15:30:00,
2013-03-24 11:35:00,40.9,21.2,29.79,NNW,331,11.2,19.6,45,0.00,FEW,,0.00,WeatherDisplay:10.37,2013-03-24 15:35:00,
2013-03-24 11:40:00,40.9,21.7,29.80,North,7,7.6,16.1,46,0.00,FEW,,0.00,WeatherDisplay:10.37,2013-03-24 15:40:00,
2013-03-24 11:45:00,40.6,21.4,29.80,NNW,345,11.7,19.6,46,0.00,FEW,,0.00,WeatherDisplay:10.37,2013-03-24 15:45:00,
2013-03-24 11:50:00,41.2,22.0,29.80,WNW,302,10.6,13.8,46,0.00,FEW,,0.00,WeatherDisplay:10.37,2013-03-24 15:50:00,
2013-03-24 11:55:00,41.5,21.2,29.80,NW,326,10.1,19.6,44,0.00,FEW,,0.00,WeatherDisplay:10.37,2013-03-24 15:55:00,
2013-03-24 12:00:00,41.5,21.2,29.81,NNW,329,6.8,16.1,44,0.00,FEW,,0.00,WeatherDisplay:10.37,2013-03-24 16:00:00,
2013-03-24 12:05:00,42.0,21.6,29.81,NNW,337,7.0,11.5,44,0.00,FEW,,0.00,WeatherDisplay:10.37,2013-03-24 16:05:00,
2013-03-24 12:10:00,42.0,21.6,29.80,North,9,3.6,8.1,44,0.00,FEW,,0.00,WeatherDisplay:10.37,2013-03-24 16:10:00,
2013-03-24 12:15:00,41.6,21.3,29.80,North,2,9.3,18.4,44,0.00,FEW,,0.00,WeatherDisplay:10.37,2013-03-24 16:15:00,
2013-03-24 12:20:00,41.3,21.0,29.80,NNW,348,9.9,11.5,44,0.00,FEW,,0.00,WeatherDisplay:10.37,2013-03-24 16:20:00,
2013-03-24 12:25:00,40.9,21.2,29.80,NW,310,8.5,13.0,45,0.00,FEW,,0.00,WeatherDisplay:10.37,2013-03-24 16:25:00,
2013-03-24 12:30:00,41.3,20.5,29.80,North,4,5.1,13.8,43,0.00,FEW,,0.00,WeatherDisplay:10.37,2013-03-24 16:30:00,
2013-03-24 12:35:00,41.8,20.9,29.81,NW,309,10.3,13.8,43,0.00,FEW,,0.00,WeatherDisplay:10.37,2013-03-24 16:35:00,
2013-03-24 12:40:00,42.2,21.3,29.81,NNW,347,5.2,11.5,43,0.00,FEW,,0.00,WeatherDisplay:10.37,2013-03-24 16:40:00,
2013-03-24 12:45:00,41.9,21.5,29.80,NNW,329,9.1,13.8,44,0.00,FEW,,0.00,WeatherDisplay:10.37,2013-03-24 16:45:00,
2013-03-24 12:50:00,41.6,21.3,29.80,NW,313,8.9,11.5,44,0.00,FEW,,0.00,WeatherDisplay:10.37,2013-03-24 16:50:00,
2013-03-24 12:55:00,41.9,21.0,29.80,North,350,7.0,11.5,43,0.00,FEW,,0.00,WeatherDisplay:10.37,2013-03-24 16:55:00,
2013-03-24 13:00:00,42.6,21.6,29.80,West,278,6.5,12.0,43,0.00,FEW,,0.00,WeatherDisplay:10.37,2013-03-24 17:00:00,
2013-03-24 13:05:00,42.9,20.8,29.81,WNW,286,3.6,11.5,41,0.00,FEW,,0.00,WeatherDisplay:10.37,2013-03-24 17:05:00,
2013-03-24 13:10:00,43.5,21.9,29.81,WNW,303,2.9,7.0,42,0.00,FEW,,0.00,WeatherDisplay:10.37,2013-03-24 17:10:00,
2013-03-24 13:15:00,43.8,22.2,29.80,NW,321,5.8,11.5,42,0.00,FEW,,0.00,WeatherDisplay:10.37,2013-03-24 17:15:00,
2013-03-24 13:20:00,43.2,21.6,29.80,North,2,2.4,8.1,42,0.00,FEW,,0.00,WeatherDisplay:10.37,2013-03-24 17:20:00,
2013-03-24 13:25:00,43.3,21.7,29.80,NW,326,9.8,12.7,42,0.00,FEW,,0.00,WeatherDisplay:10.37,2013-03-24 17:25:00,
2013-03-24 13:30:00,43.5,21.3,29.79,WNW,282,6.3,10.4,41,0.00,FEW,,0.00,WeatherDisplay:10.37,2013-03-24 17:30:00,
2013-03-24 13:35:00,43.5,21.3,29.78,NNW,337,7.9,11.5,41,0.00,FEW,,0.00,WeatherDisplay:10.37,2013-03-24 17:35:00,
2013-03-24 13:40:00,43.5,21.3,29.79,NNW,337,7.7,11.5,41,0.00,FEW,,0.00,WeatherDisplay:10.37,2013-03-24 17:40:00,
2013-03-24 13:45:00,43.0,21.4,29.79,North,358,3.3,12.7,42,0.00,FEW,,0.00,WeatherDisplay:10.37,2013-03-24 17:45:00,
2013-03-24 13:50:00,42.3,21.4,29.78,North,0,5.8,13.8,43,0.00,FEW,,0.00,WeatherDisplay:10.37,2013-03-24 17:50:00,
2013-03-24 13:55:00,42.0,21.1,29.78,NW,320,6.2,8.1,43,0.00,FEW,,0.00,WeatherDisplay:10.37,2013-03-24 17:55:00,
2013-03-24 14:00:00,42.3,21.9,29.79,North,353,6.6,12.7,44,0.00,SCT,,0.00,WeatherDisplay:10.37,2013-03-24 18:00:00,
2013-03-24 14:05:00,42.3,20.8,29.78,North,0,10.0,17.3,42,0.00,SCT,,0.00,WeatherDisplay:10.37,2013-03-24 18:05:00,
2013-03-24 14:10:00,42.5,21.5,29.78,North,354,7.3,8.1,43,0.00,SCT,,0.00,WeatherDisplay:10.37,2013-03-24 18:10:00,
2013-03-24 14:15:00,43.0,21.4,29.78,WNW,282,11.5,16.1,42,0.00,SCT,,0.00,WeatherDisplay:10.37,2013-03-24 18:15:00,
2013-03-24 14:20:00,42.8,21.3,29.77,North,358,4.7,11.5,42,0.00,SCT,,0.00,WeatherDisplay:10.37,2013-03-24 18:20:00,
2013-03-24 14:25:00,43.3,22.3,29.77,North,354,7.6,11.0,43,0.00,SCT,,0.00,WeatherDisplay:10.37,2013-03-24 18:25:00,
2013-03-24 14:30:00,43.6,22.0,29.78,North,358,5.8,12.0,42,0.00,SCT,,0.00,WeatherDisplay:10.37,2013-03-24 18:30:00,
2013-03-24 14:35:00,43.8,21.0,29.78,NNW,336,10.7,18.4,40,0.00,SCT,,0.00,WeatherDisplay:10.37,2013-03-24 18:35:00,
2013-03-24 14:40:00,43.8,22.2,29.78,NW,306,10.9,16.1,42,0.00,SCT,,0.00,WeatherDisplay:10.37,2013-03-24 18:40:00,
2013-03-24 14:45:00,43.8,21.0,29.78,WNW,302,3.6,11.5,40,0.00,SCT,,0.00,WeatherDisplay:10.37,2013-03-24 18:45:00,
2013-03-24 14:50:00,44.2,20.8,29.78,North,0,5.1,12.7,39,0.00,SCT,,0.00,WeatherDisplay:10.37,2013-03-24 18:50:00,
2013-03-24 14:55:00,44.2,22.5,29.78,NW,309,4.7,11.5,42,0.00,SCT,,0.00,WeatherDisplay:10.37,2013-03-24 18:55:00,
2013-03-24 15:00:00,44.2,22.5,29.78,North,5,8.1,9.2,42,0.00,CLR,,0.00,WeatherDisplay:10.37,2013-03-24 19:00:00,
2013-03-24 15:05:00,44.0,21.2,29.77,NNW,344,4.0,8.0,40,0.00,CLR,,0.00,WeatherDisplay:10.37,2013-03-24 19:05:00,
2013-03-24 15:10:00,43.3,21.7,29.77,North,354,4.8,10.4,42,0.00,CLR,,0.00,WeatherDisplay:10.37,2013-03-24 19:10:00,
2013-03-24 15:15:00,43.2,21.1,29.77,NNE,12,7.9,11.5,41,0.00,CLR,,0.00,WeatherDisplay:10.37,2013-03-24 19:15:00,
2013-03-24 15:20:00,42.9,20.2,29.77,WNW,295,8.5,18.4,40,0.00,CLR,,0.00,WeatherDisplay:10.37,2013-03-24 19:20:00,
2013-03-24 15:25:00,43.2,21.6,29.76,North,1,4.1,13.8,42,0.00,CLR,,0.00,WeatherDisplay:10.37,2013-03-24 19:25:00,
2013-03-24 15:30:00,43.5,20.7,29.76,North,2,11.5,13.8,40,0.00,CLR,,0.00,WeatherDisplay:10.37,2013-03-24 19:30:00,
2013-03-24 15:35:00,43.5,21.3,29.76,North,7,6.0,6.0,41,0.00,CLR,,0.00,WeatherDisplay:10.37,2013-03-24 19:35:00,
2013-03-24 15:40:00,43.8,22.2,29.76,NNW,338,10.1,14.0,42,0.00,CLR,,0.00,WeatherDisplay:10.37,2013-03-24 19:40:00,
2013-03-24 15:45:00,43.8,21.6,29.76,NNW,347,6.9,16.1,41,0.00,CLR,,0.00,WeatherDisplay:10.37,2013-03-24 19:45:00,
2013-03-24 15:50:00,43.8,22.2,29.75,NNW,337,6.7,8.1,42,0.00,CLR,,0.00,WeatherDisplay:10.37,2013-03-24 19:50:00,
2013-03-24 15:55:00,43.9,22.3,29.75,NW,307,7.4,11.5,42,0.00,CLR,,0.00,WeatherDisplay:10.37,2013-03-24 19:55:00,
2013-03-24 16:00:00,43.9,22.3,29.76,NW,319,8.0,13.8,42,0.00,FEW,,0.00,WeatherDisplay:10.37,2013-03-24 20:00:00,
2013-03-24 16:05:00,43.5,20.7,29.75,North,357,8.0,13.8,40,0.00,FEW,,0.00,WeatherDisplay:10.37,2013-03-24 20:05:00,
2013-03-24 16:10:00,43.5,20.7,29.75,North,1,6.7,9.2,40,0.00,FEW,,0.00,WeatherDisplay:10.37,2013-03-24 20:10:00,
2013-03-24 16:15:00,43.5,21.9,29.75,NNW,348,7.2,10.4,42,0.00,FEW,,0.00,WeatherDisplay:10.37,2013-03-24 20:15:00,
2013-03-24 16:20:00,43.6,21.4,29.75,NW,310,3.8,7.0,41,0.00,FEW,,0.00,WeatherDisplay:10.37,2013-03-24 20:20:00,
2013-03-24 16:25:00,43.8,21.6,29.75,NNE,14,5.3,11.5,41,0.00,FEW,,0.00,WeatherDisplay:10.37,2013-03-24 20:25:00,
2013-03-24 16:30:00,43.9,21.7,29.75,NNW,333,7.2,11.0,41,0.00,FEW,,0.00,WeatherDisplay:10.37,2013-03-24 20:30:00,
2013-03-24 16:35:00,43.8,21.0,29.75,West,278,7.5,15.0,40,0.00,FEW,,0.00,WeatherDisplay:10.37,2013-03-24 20:35:00,
2013-03-24 16:40:00,43.6,20.8,29.74,WNW,303,7.9,11.5,40,0.00,FEW,,0.00,WeatherDisplay:10.37,2013-03-24 20:40:00,
2013-03-24 16:45:00,43.8,21.6,29.74,NW,320,8.6,11.5,41,0.00,FEW,,0.00,WeatherDisplay:10.37,2013-03-24 20:45:00,
2013-03-24 16:50:00,43.6,20.8,29.75,NW,307,7.0,11.5,40,0.00,FEW,,0.00,WeatherDisplay:10.37,2013-03-24 20:50:00,
2013-03-24 16:55:00,43.8,21.0,29.75,North,351,2.9,8.1,40,0.00,FEW,,0.00,WeatherDisplay:10.37,2013-03-24 20:55:00,
2013-03-24 17:00:00,43.8,21.0,29.75,NW,316,7.7,10.4,40,0.00,CLR,,0.00,WeatherDisplay:10.37,2013-03-24 21:00:00,
2013-03-24 17:05:00,43.6,20.2,29.74,NNW,336,9.0,11.5,39,0.00,CLR,,0.00,WeatherDisplay:10.37,2013-03-24 21:05:00,
2013-03-24 17:10:00,43.5,20.7,29.74,NNW,333,4.8,10.4,40,0.00,CLR,,0.00,WeatherDisplay:10.37,2013-03-24 21:10:00,
2013-03-24 17:15:00,43.8,21.0,29.74,WNW,286,6.9,11.5,40,0.00,CLR,,0.00,WeatherDisplay:10.37,2013-03-24 21:15:00,
2013-03-24 17:20:00,43.8,21.0,29.74,North,0,6.9,11.5,40,0.00,CLR,,0.00,WeatherDisplay:10.37,2013-03-24 21:20:00,
2013-03-24 17:25:00,43.6,20.8,29.74,North,1,5.6,8.1,40,0.00,CLR,,0.00,WeatherDisplay:10.37,2013-03-24 21:25:00,
2013-03-24 17:30:00,43.6,20.2,29.75,West,273,4.6,6.0,39,0.00,CLR,,0.00,WeatherDisplay:10.37,2013-03-24 21:30:00,
2013-03-24 17:35:00,43.6,20.2,29.74,NNW,341,3.5,6.9,39,0.00,CLR,,0.00,WeatherDisplay:10.37,2013-03-24 21:35:00,
2013-03-24 17:40:00,43.3,20.6,29.74,NNW,337,7.6,11.5,40,0.00,CLR,,0.00,WeatherDisplay:10.37,2013-03-24 21:40:00,
2013-03-24 17:45:00,42.9,20.8,29.74,NW,316,6.1,8.1,41,0.00,CLR,,0.00,WeatherDisplay:10.37,2013-03-24 21:45:00,
2013-03-24 17:50:00,42.6,20.5,29.75,NW,313,8.9,12.7,41,0.00,CLR,,0.00,WeatherDisplay:10.37,2013-03-24 21:50:00,
2013-03-24 17:55:00,42.3,20.8,29.75,NW,316,8.5,13.8,42,0.00,CLR,,0.00,WeatherDisplay:10.37,2013-03-24 21:55:00,
2013-03-24 18:00:00,42.2,20.7,29.75,NNW,331,5.2,6.9,42,0.00,CLR,,0.00,WeatherDisplay:10.37,2013-03-24 22:00:00,
2013-03-24 18:05:00,42.0,21.1,29.76,NNW,345,6.4,6.9,43,0.00,CLR,,0.00,WeatherDisplay:10.37,2013-03-24 22:05:00,
2013-03-24 18:10:00,41.9,21.0,29.76,NNW,333,7.1,11.5,43,0.00,CLR,,0.00,WeatherDisplay:10.37,2013-03-24 22:10:00,
2013-03-24 18:15:00,41.8,20.9,29.76,North,354,5.0,6.9,43,0.00,CLR,,0.00,WeatherDisplay:10.37,2013-03-24 22:15:00,
2013-03-24 18:20:00,41.5,21.2,29.76,NW,314,3.3,6.9,44,0.00,CLR,,0.00,WeatherDisplay:10.37,2013-03-24 22:20:00,
2013-03-24 18:25:00,41.3,21.0,29.76,WNW,299,2.0,5.0,44,0.00,CLR,,0.00,WeatherDisplay:10.37,2013-03-24 22:25:00,
2013-03-24 18:30:00,41.2,20.9,29.76,NNW,327,5.1,10.4,44,0.00,CLR,,0.00,WeatherDisplay:10.37,2013-03-24 22:30:00,
2013-03-24 18:35:00,40.9,21.2,29.76,NNW,330,7.5,7.5,45,0.00,CLR,,0.00,WeatherDisplay:10.37,2013-03-24 22:35:00,
2013-03-24 18:40:00,40.8,21.1,29.76,NNW,347,4.6,6.9,45,0.00,CLR,,0.00,WeatherDisplay:10.37,2013-03-24 22:40:00,
2013-03-24 18:45:00,40.5,21.3,29.76,NNW,340,5.3,8.1,46,0.00,CLR,,0.00,WeatherDisplay:10.37,2013-03-24 22:45:00,
2013-03-24 18:50:00,40.2,21.6,29.76,NW,313,5.6,10.0,47,0.00,CLR,,0.00,WeatherDisplay:10.37,2013-03-24 22:50:00,
2013-03-24 18:55:00,39.9,21.3,29.77,NW,316,3.7,6.9,47,0.00,CLR,,0.00,WeatherDisplay:10.37,2013-03-24 22:55:00,
2013-03-24 19:00:00,39.8,21.2,29.77,NNW,343,3.3,8.1,47,0.00,CLR,,0.00,WeatherDisplay:10.37,2013-03-24 23:00:00,
2013-03-24 19:05:00,39.6,21.0,29.77,NW,316,3.1,6.9,47,0.00,CLR,,0.00,WeatherDisplay:10.37,2013-03-24 23:05:00,
2013-03-24 19:10:00,39.3,21.2,29.77,North,354,0.8,5.8,48,0.00,CLR,,0.00,WeatherDisplay:10.37,2013-03-24 23:10:00,
2013-03-24 19:15:00,39.2,21.1,29.77,NNW,331,0.5,3.5,48,0.00,CLR,,0.00,WeatherDisplay:10.37,2013-03-24 23:15:00,
2013-03-24 19:20:00,39.0,21.4,29.77,NW,309,3.0,5.8,49,0.00,CLR,,0.00,WeatherDisplay:10.37,2013-03-24 23:20:00,
2013-03-24 19:25:00,38.9,21.3,29.77,NNW,329,3.6,8.1,49,0.00,CLR,,0.00,WeatherDisplay:10.37,2013-03-24 23:25:00,
2013-03-24 19:30:00,38.8,21.7,29.77,NNW,334,3.8,4.6,50,0.00,CLR,,0.00,WeatherDisplay:10.37,2013-03-24 23:30:00,
2013-03-24 19:35:00,38.6,22.0,29.78,NW,326,1.7,4.6,51,0.00,CLR,,0.00,WeatherDisplay:10.37,2013-03-24 23:35:00,
2013-03-24 19:40:00,38.5,21.5,29.78,North,350,0.8,8.1,50,0.00,CLR,,0.00,WeatherDisplay:10.37,2013-03-24 23:40:00,
2013-03-24 19:45:00,38.3,21.7,29.78,NNW,337,4.1,7.0,51,0.00,CLR,,0.00,WeatherDisplay:10.37,2013-03-24 23:45:00,
2013-03-24 19:50:00,38.5,21.5,29.78,NNW,340,2.8,5.8,50,0.00,CLR,,0.00,WeatherDisplay:10.37,2013-03-24 23:50:00,
2013-03-24 19:55:00,38.5,21.9,29.78,NNW,345,6.1,6.9,51,0.00,CLR,,0.00,WeatherDisplay:10.37,2013-03-24 23:55:00,
2013-03-24 20:00:00,38.3,21.7,29.78,NW,326,3.7,6.9,51,0.00,SCT,,0.00,WeatherDisplay:10.37,2013-03-25 00:00:00,
2013-03-24 20:05:00,38.3,22.2,29.79,NNW,343,1.8,7.0,52,0.00,SCT,,0.00,WeatherDisplay:10.37,2013-03-25 00:05:00,
2013-03-24 20:10:00,38.3,21.7,29.79,North,358,0.2,3.5,51,0.00,SCT,,0.00,WeatherDisplay:10.37,2013-03-25 00:10:00,
2013-03-24 20:15:00,38.2,22.1,29.79,NNW,348,2.7,4.6,52,0.00,SCT,,0.00,WeatherDisplay:10.37,2013-03-25 00:15:00,
2013-03-24 20:20:00,38.0,21.9,29.79,NNE,12,6.4,8.0,52,0.00,SCT,,0.00,WeatherDisplay:10.37,2013-03-25 00:20:00,
2013-03-24 20:25:00,37.9,22.3,29.79,NW,310,3.5,5.8,53,0.00,SCT,,0.00,WeatherDisplay:10.37,2013-03-25 00:25:00,
2013-03-24 20:30:00,37.7,21.6,29.78,NW,320,4.9,10.4,52,0.00,SCT,,0.00,WeatherDisplay:10.37,2013-03-25 00:30:00,
2013-03-24 20:35:00,37.5,21.5,29.78,North,7,3.5,10.4,52,0.00,SCT,,0.00,WeatherDisplay:10.37,2013-03-25 00:35:00,
2013-03-24 20:40:00,37.3,21.7,29.78,NNW,341,5.8,8.1,53,0.00,SCT,,0.00,WeatherDisplay:10.37,2013-03-25 00:40:00,
2013-03-24 20:45:00,37.2,22.1,29.78,North,4,4.4,5.8,54,0.00,SCT,,0.00,WeatherDisplay:10.37,2013-03-25 00:45:00,
2013-03-24 20:50:00,37.0,21.9,29.79,NNW,327,1.0,4.6,54,0.00,SCT,,0.00,WeatherDisplay:10.37,2013-03-25 00:50:00,
2013-03-24 20:55:00,36.9,22.2,29.79,NNW,347,2.4,3.5,55,0.00,SCT,,0.00,WeatherDisplay:10.37,2013-03-25 00:55:00,
2013-03-24 21:00:00,36.9,22.2,29.79,North,2,3.5,6.9,55,0.00,OVC,,0.00,WeatherDisplay:10.37,2013-03-25 01:00:00,
2013-03-24 21:05:00,36.7,22.0,29.79,NW,309,3.1,6.9,55,0.00,OVC,,0.00,WeatherDisplay:10.37,2013-03-25 01:05:00,
2013-03-24 21:10:00,36.9,22.2,29.79,North,9,1.7,3.5,55,0.00,OVC,,0.00,WeatherDisplay:10.37,2013-03-25 01:10:00,
2013-03-24 21:15:00,36.7,22.0,29.79,NNW,329,1.9,3.5,55,0.00,OVC,,0.00,WeatherDisplay:10.37,2013-03-25 01:15:00,
2013-03-24 21:20:00,36.7,22.0,29.80,NNW,334,2.2,3.0,55,0.00,OVC,,0.00,WeatherDisplay:10.37,2013-03-25 01:20:00,
2013-03-24 21:25:00,36.6,21.9,29.80,North,9,0.1,1.2,55,0.00,OVC,,0.00,WeatherDisplay:10.37,2013-03-25 01:25:00,
2013-03-24 21:30:00,36.6,22.4,29.80,NNW,329,1.6,2.3,56,0.00,OVC,,0.00,WeatherDisplay:10.37,2013-03-25 01:30:00,
2013-03-24 21:35:00,36.5,21.8,29.80,NW,316,2.3,4.6,55,0.00,OVC,,0.00,WeatherDisplay:10.37,2013-03-25 01:35:00,
2013-03-24 21:40:00,36.3,21.7,29.80,NNW,333,1.9,3.5,55,0.00,OVC,,0.00,WeatherDisplay:10.37,2013-03-25 01:40:00,
2013-03-24 21:45:00,36.2,22.0,29.81,North,8,0.8,3.5,56,0.00,OVC,,0.00,WeatherDisplay:10.37,2013-03-25 01:45:00,
2013-03-24 21:50:00,36.0,21.8,29.81,NNW,336,1.2,3.0,56,0.00,OVC,,0.00,WeatherDisplay:10.37,2013-03-25 01:50:00,
2013-03-24 21:55:00,35.7,21.5,29.81,NNW,347,2.0,3.5,56,0.00,OVC,,0.00,WeatherDisplay:10.37,2013-03-25 01:55:00,
2013-03-24 22:00:00,35.6,21.4,29.81,NNW,338,0.7,1.2,56,0.00,BKN,,0.00,WeatherDisplay:10.37,2013-03-25 02:00:00,
2013-03-24 22:05:00,35.5,21.8,29.81,NNW,344,0.9,3.5,57,0.00,BKN,,0.00,WeatherDisplay:10.37,2013-03-25 02:05:00,
2013-03-24 22:10:00,35.2,21.5,29.81,NNW,343,0.0,0.0,57,0.00,BKN,,0.00,WeatherDisplay:10.37,2013-03-25 02:10:00,
2013-03-24 22:15:00,34.9,21.2,29.81,NNW,343,0.7,2.3,57,0.00,BKN,,0.00,WeatherDisplay:10.37,2013-03-25 02:15:00,
2013-03-24 22:20:00,34.7,21.0,29.80,NNW,343,0.0,0.0,57,0.00,BKN,,0.00,WeatherDisplay:10.37,2013-03-25 02:20:00,
2013-03-24 22:25:00,34.4,21.1,29.80,NNW,343,0.0,0.0,58,0.00,BKN,,0.00,WeatherDisplay:10.37,2013-03-25 02:25:00,
2013-03-24 22:30:00,34.1,21.3,29.80,NNW,343,0.0,0.0,59,0.00,BKN,,0.00,WeatherDisplay:10.37,2013-03-25 02:30:00,
2013-03-24 22:35:00,33.8,21.8,29.80,NNW,343,0.0,0.0,61,0.00,BKN,,0.00,WeatherDisplay:10.37,2013-03-25 02:35:00,
2013-03-24 22:40:00,33.2,21.6,29.80,NNW,343,0.0,0.0,62,0.00,BKN,,0.00,WeatherDisplay:10.37,2013-03-25 02:40:00,
2013-03-24 22:45:00,32.9,21.7,29.80,NNW,343,0.0,0.0,63,0.00,BKN,,0.00,WeatherDisplay:10.37,2013-03-25 02:45:00,
2013-03-24 22:50:00,32.5,21.3,29.80,NNW,343,0.0,0.0,63,0.00,BKN,,0.00,WeatherDisplay:10.37,2013-03-25 02:50:00,
2013-03-24 22:55:00,32.1,21.7,29.80,NNW,343,0.0,0.0,65,0.00,BKN,,0.00,WeatherDisplay:10.37,2013-03-25 02:55:00,
2013-03-24 23:00:00,31.6,21.2,29.80,NNW,344,0.0,0.0,65,0.00,CLR,,0.00,WeatherDisplay:10.37,2013-03-25 03:00:00,
2013-03-24 23:05:00,31.3,21.6,29.80,NNW,343,0.0,0.0,67,0.00,CLR,,0.00,WeatherDisplay:10.37,2013-03-25 03:05:00,
2013-03-24 23:10:00,30.9,21.2,29.79,NNW,344,0.0,0.0,67,0.00,CLR,,0.00,WeatherDisplay:10.37,2013-03-25 03:10:00,
2013-03-24 23:15:00,30.6,20.9,29.79,NNW,344,0.0,0.0,67,0.00,CLR,,0.00,WeatherDisplay:10.37,2013-03-25 03:15:00,
2013-03-24 23:20:00,30.3,21.0,29.79,NNW,343,0.0,0.0,68,0.00,CLR,,0.00,WeatherDisplay:10.37,2013-03-25 03:20:00,
2013-03-24 23:25:00,30.1,20.8,29.79,NNW,343,0.0,0.0,68,0.00,CLR,,0.00,WeatherDisplay:10.37,2013-03-25 03:25:00,
2013-03-24 23:30:00,30.0,20.7,29.79,NNW,343,0.2,1.2,68,0.00,CLR,,0.00,WeatherDisplay:10.37,2013-03-25 03:30:00,
2013-03-24 23:35:00,29.7,20.4,29.79,NNW,343,0.4,1.2,68,0.00,CLR,,0.00,WeatherDisplay:10.37,2013-03-25 03:35:00,
2013-03-24 23:40:00,29.4,20.1,29.79,NNW,343,0.0,0.0,68,0.00,CLR,,0.00,WeatherDisplay:10.37,2013-03-25 03:40:00,
2013-03-24 23:45:00,29.1,20.5,29.79,NNW,344,0.0,0.0,70,0.00,CLR,,0.00,WeatherDisplay:10.37,2013-03-25 03:45:00,
2013-03-24 23:50:00,28.8,20.2,29.79,NNW,343,0.0,1.2,70,0.00,CLR,,0.00,WeatherDisplay:10.37,2013-03-25 03:50:00,
2013-03-24 23:55:00,28.5,20.0,29.79,NNW,343,0.0,0.0,70,0.00,CLR,,0.00,WeatherDisplay:10.37,2013-03-25 03:55:00,